EW2167 Weather Reports


Display with metric or nautical units.
time (UTC)temp
F
wind
direction
speed
MPH
gust
MPH
rain 1hr
in
rain 24hr
in
rain mn
in
humidity
%
barometer
mb
20260903121534 74 0 0.0 1.0 0.00 0.00 0.00 94 1018.3
20260903120044 72 0 0.0 0.0 0.00 0.00 0.00 95 1018.1
20260903114536 72 0 0.0 0.0 0.00 0.00 0.00 95 1018.0
20260903113036 72 0 0.0 0.0 0.00 0.00 0.00 95 1017.9
20260903111546 72 0 0.0 0.0 0.00 0.00 0.00 95 1017.7
20260903110036 72 0 0.0 0.0 0.00 0.00 0.00 95 1017.6
20260903104545 72 0 0.0 0.0 0.00 0.00 0.00 95 1017.4
20260903103051 72 0 0.0 0.0 0.00 0.00 0.00 94 1017.4
20260903101541 72 0 0.0 1.0 0.00 0.00 0.00 94 1017.3
20260903100036 72 0 0.0 0.0 0.00 0.00 0.00 94 1017.5
20260903094537 73 0 0.0 1.0 0.00 0.00 0.00 94 1017.4
20260903093047 72 0 0.0 0.0 0.00 0.00 0.00 94 1017.4
20260903091538 72 0 0.0 0.0 0.00 0.00 0.00 94 1017.3
20260903090036 73 0 0.0 0.0 0.00 0.00 0.00 94 1017.3
20260903084545 73 0 0.0 0.0 0.00 0.00 0.00 94 1017.3
20260903083036 73 0 0.0 0.0 0.00 0.00 0.00 94 1017.3
20260903081541 74 0 0.0 1.0 0.00 0.00 0.00 93 1017.3
20260903080037 73 0 0.0 0.0 0.00 0.00 0.00 93 1017.1
20260903074534 73 0 0.0 0.0 0.00 0.00 0.00 93 1017.1
20260903073038 74 0 0.0 0.0 0.00 0.00 0.00 93 1017.0
20260903071536 74 0 0.0 0.0 0.00 0.00 0.00 93 1017.0
20260903070036 74 0 0.0 0.0 0.00 0.00 0.00 92 1017.0
20260903064540 74 0 0.0 1.0 0.00 0.00 0.00 92 1017.0
20260903063042 74 0 0.0 0.0 0.00 0.00 0.00 92 1017.1
20260903061537 75 0 0.0 1.0 0.00 0.00 0.00 91 1017.0
20260903060037 75 0 0.0 1.0 0.00 0.00 0.00 91 1017.0
20260903054536 75 0 0.0 0.0 0.00 0.00 0.00 91 1017.0
20260903053039 75 0 0.0 1.0 0.00 0.00 0.00 91 1017.0
20260903051534 75 0 0.0 1.0 0.00 0.00 0.00 90 1016.9
20260903050045 75 0 0.0 0.0 0.00 0.00 0.00 91 1016.9
20260903044539 75 0 0.0 1.0 0.00 0.00 0.00 90 1016.9
20260903043036 76 0 0.0 1.0 0.00 0.00 0.00 89 1016.7
20260903041544 76 0 0.0 0.0 0.00 0.00 0.00 89 1016.8
20260903040039 77 0 0.0 0.0 0.00 0.00 0.00 88 1016.8
20260903034538 77 0 0.0 0.0 0.00 0.00 0.00 87 1016.9
20260903033034 77 0 0.0 0.0 0.00 0.00 0.00 88 1017.0
20260903031540 77 0 0.0 0.0 0.00 0.00 0.00 87 1017.0
20260903030037 77 0 0.0 0.0 0.00 0.00 0.00 88 1017.1
20260903024538 77 0 0.0 0.0 0.00 0.00 0.00 88 1017.1
20260903023035 77 0 0.0 0.0 0.00 0.00 0.00 88 1017.1
20260903021537 78 0 0.0 0.0 0.00 0.00 0.00 87 1017.2
20260903020057 78 0 0.0 0.0 0.00 0.00 0.00 87 1017.0
20260903014539 78 0 0.0 1.0 0.00 0.00 0.00 86 1017.1
20260903013037 79 0 0.0 2.0 0.00 0.00 0.00 85 1017.0
20260903011540 80 0 0.0 2.0 0.00 0.00 0.00 84 1016.8
20260903010035 79 0 0.0 2.0 0.00 0.00 0.00 85 1016.6
20260903004538 80 0 0.0 1.0 0.00 0.00 0.00 83 1016.5
20260903003036 81 0 0.0 1.0 0.00 0.00 0.00 84 1016.4
20260903001553 82 0 0.0 2.0 0.00 0.00 0.00 81 1016.4
20260903000043 83 207 0.0 2.0 0.00 0.00 0.00 79 1016.4
20260902234537 85 0 0.0 3.0 0.00 0.00 0.00 76 1016.4
20260902233038 86 207 0.0 3.0 0.00 0.00 0.00 75 1016.6
20260902231540 88 206 0.0 5.0 0.00 0.00 0.00 70 1016.6
20260902230037 88 218 1.0 4.0 0.00 0.00 0.00 69 1016.6
20260902224535 90 228 1.0 8.0 0.00 0.00 0.00 67 1016.7
20260902223034 90 235 3.0 7.0 0.00 0.00 0.00 66 1016.7
20260902221556 91 219 2.0 8.0 0.00 0.00 0.00 65 1017.0
20260902220037 91 194 2.0 7.0 0.00 0.00 0.00 64 1017.0
20260902214538 92 223 1.0 11.0 0.00 0.00 0.00 64 1016.9
20260902213036 92 232 2.0 10.0 0.00 0.00 0.00 63 1017.0
20260902211538 93 214 3.0 11.0 0.00 0.00 0.00 60 1017.0
20260902210037 93 215 4.0 10.0 0.00 0.00 0.00 61 1017.2
20260902204548 93 235 3.0 10.0 0.00 0.00 0.00 61 1017.1
20260902203035 93 211 4.0 12.0 0.00 0.00 0.00 61 1017.3
20260902201541 93 238 5.0 9.0 0.00 0.00 0.00 58 1017.3
20260902200038 93 242 3.0 10.0 0.00 0.00 0.00 60 1017.5
20260902194551 93 240 1.0 12.0 0.00 0.00 0.00 60 1017.7
20260902193042 92 0 2.0 13.0 0.00 0.00 0.00 60 1017.7
20260902191549 93 296 2.0 10.0 0.00 0.00 0.00 59 1017.8
20260902190039 93 225 2.0 10.0 0.00 0.00 0.00 60 1018.0
20260902184534 92 214 2.0 11.0 0.00 0.00 0.00 63 1018.1
20260902183041 93 239 3.0 10.0 0.00 0.00 0.00 60 1018.1
20260902181536 92 205 3.0 8.0 0.00 0.00 0.00 63 1018.4
20260902180036 93 236 4.0 10.0 0.00 0.00 0.00 61 1018.4
20260902174538 93 0 3.0 8.0 0.00 0.00 0.00 61 1018.5
20260902173051 92 0 2.0 10.0 0.00 0.00 0.00 60 1018.8
20260902171537 92 206 5.0 11.0 0.00 0.00 0.00 59 1018.9
20260902170043 92 198 3.0 9.0 0.00 0.00 0.00 64 1018.8
20260902164545 91 241 3.0 12.0 0.00 0.00 0.00 64 1018.9
20260902163036 92 0 0.0 11.0 0.00 0.00 0.00 66 1019.0
20260902161538 90 252 4.0 12.0 0.00 0.00 0.00 65 1019.1
20260902160045 90 250 1.0 8.0 0.00 0.00 0.00 66 1019.1
20260902154546 90 240 2.0 9.0 0.00 0.00 0.00 65 1019.2
20260902153035 89 214 2.0 7.0 0.00 0.00 0.00 66 1019.3
20260902151538 89 269 1.0 8.0 0.00 0.00 0.00 70 1019.4
20260902150035 88 0 0.0 5.0 0.00 0.00 0.00 72 1019.3
20260902144537 86 196 3.0 5.0 0.00 0.00 0.00 73 1019.4
20260902143038 85 0 0.0 7.0 0.00 0.00 0.00 75 1019.2
20260902141538 85 209 0.0 2.0 0.00 0.00 0.00 76 1019.3
20260902140039 83 211 0.0 4.0 0.00 0.00 0.00 79 1019.4
20260902134539 81 205 0.0 3.0 0.00 0.00 0.00 83 1019.5
20260902133037 79 0 0.0 2.0 0.00 0.00 0.00 85 1019.4
20260902131547 78 207 0.0 2.0 0.00 0.00 0.00 88 1019.4
20260902130049 76 0 0.0 3.0 0.00 0.00 0.00 88 1019.4
20260902124537 75 0 0.0 2.0 0.00 0.00 0.00 91 1019.3
20260902123038 74 0 0.0 1.0 0.00 0.00 0.00 92 1019.2